Location: Oak Glen
(34.0495°N, 116.9470°E)
Time: 14:28:55
(UTC-08:00)

Envisat - Pass Details

Date: 15 October 2017
Orbit: 764 x 766 km, 98.2° (Epoch: 14 December)

Event Time Altitude Azimuth Distance (km) Brightness Sun altitude
Exits shadow 05:01:34 23° 355° (N) 1,580 4.7 -30.4°
Drops below altitude 10° 05:03:28 10° 352° (N) 2,306 5.6 -30.7°
Sets 05:05:47 0° 351° (N) 3,236 6.5 -31.2°
